Theta_e
348 350 351 353 354 356 352 353 354 360 364 364 362 360 357 352 358 354 352 351 347 345 346 345 344 344 338 339 338 338 338 338 330 333 335 339 336 334 339 334 334 331 332
345 348 352 354 351 348 353 355 360 363 363 362 360 356 355 352 351 350 345 346 342 341 342 341 338 335 337 335 338 336 337 337 333 327 333 328 328 334 334 334 333 332 328
346 344 344 345 343 349 353 358 363 361 359 357 356 351 348 349 348 349 347 344 342 341 341 339 338 337 336 335 334 332 332 332 332 330 324 329 327 330 328 331 330 330 329
348 346 347 342 346 351 359 362 362 358 356 353 351 350 352 349 348 346 345 343 340 336 334 333 332 330 330 336 331 332 334 335 332 327 326 326 327 328 325 324 321 329 326
349 347 350 353 361 360 359 357 356 356 353 351 351 352 350 345 340 346 344 341 338 333 331 329 329 329 330 328 324 327 329 328 326 327 325 323 322 321 321 324 320 322 329
353 350 352 359 362 361 356 356 352 351 348 350 351 349 348 336 335 337 342 338 336 332 330 331 330 329 329 330 328 328 325 323 325 323 320 320 319 319 320 322 319 319 316
357 360 361 360 357 353 352 354 350 349 350 351 347 347 338 335 331 333 334 336 336 336 337 336 329 330 334 330 328 326 325 325 329 326 319 318 316 318 320 319 319 320 319
359 361 362 362 358 356 355 352 348 347 348 348 345 340 337 331 327 326 334 336 337 336 334 335 330 328 325 326 332 327 321 321 321 319 321 320 320 320 321 320 321 320 323
363 361 362 359 354 353 350 348 349 348 347 345 342 338 334 332 324 325 331 332 332 334 331 330 328 325 322 322 329 326 326 320 319 321 321 321 320 319 320 319 315 314 312
364 364 363 359 355 351 351 350 351 349 345 340 340 339 332 333 323 323 326 332 331 329 328 324 324 321 320 319 328 327 323 320 322 320 320 319 320 320 322 321 317 313 313
365 367 360 358 354 354 354 351 349 347 344 341 337 336 334 333 331 321 321 324 328 325 324 323 319 317 315 315 318 321 319 316 321 322 325 323 323 322 320 321 321 319 315
370 361 357 355 354 354 351 350 348 346 341 335 333 329 331 333 326 319 318 320 323 335 327 323 319 315 313 316 318 316 314 316 318 322 321 319 318 318 319 319 321 321 321
365 360 357 353 354 352 349 347 343 343 335 332 329 325 324 327 328 320 318 319 324 331 326 321 315 312 312 313 314 316 317 318 323 320 318 319 319 318 319 321 322 323 325
363 357 354 352 350 349 349 347 341 337 334 332 329 326 325 323 323 323 320 322 318 322 319 317 316 317 318 321 319 318 319 323 320 321 319 320 319 319 320 319 318 317 315
362 356 352 352 349 348 347 345 341 340 336 334 331 330 326 322 322 318 318 322 323 323 323 322 319 320 320 319 319 323 326 321 319 322 320 318 318 319 318 316 318 315 313
357 353 350 351 348 347 346 334 309 319 318 316 318 327 331 321 311 308 307 307 309 311 322 321 320 320 321 323 324 325 325 321 323 318 318 318 317 318 314 315 316 314 312
357 353 350 349 349 347 346 338 333 316 309 307 313 316 314 317 306 305 303 304 307 309 320 323 323 324 326 326 324 323 323 324 321 318 321 317 317 316 313 314 314 314 311
360 338 353 354 351 350 346 339 337 330 324 322 310 315 308 303 303 302 302 308 317 313 322 322 324 327 327 327 324 324 324 322 322 321 320 317 315 315 313 313 313 312 311
361 357 356 355 352 348 346 341 337 334 331 330 326 313 305 301 301 301 303 319 318 319 320 321 321 325 327 327 326 327 324 322 322 322 318 317 317 315 314 312 312 308 309
361 347 349 355 353 351 345 339 335 333 331 330 328 323 317 309 312 313 314 320 320 319 318 317 320 323 327 327 327 326 323 319 320 319 319 318 318 316 312 312 312 311 312
361 359 348 356 354 350 344 338 335 333 332 329 326 324 314 320 321 320 319 320 321 318 318 318 318 321 328 330 326 325 321 321 320 319 320 319 319 314 315 313 313 313 312
361 359 354 354 354 350 344 338 336 335 334 330 325 320 307 322 324 324 322 320 320 319 320 320 321 321 324 327 326 323 321 319 320 320 318 317 318 313 313 313 312 313 312
360 358 355 354 353 342 341 339 336 336 335 333 327 322 318 320 320 320 320 320 319 319 318 318 322 323 326 327 327 325 322 320 322 319 318 318 316 312 312 312 312 312 312
359 357 355 353 353 351 344 339 337 326 335 335 331 325 319 319 319 319 320 321 321 320 320 317 319 323 325 326 326 326 325 322 325 321 321 317 315 309 312 311 312 312 311
357 355 355 354 352 350 347 342 338 337 335 335 334 329 324 320 321 321 323 323 324 324 321 321 320 321 325 326 326 324 316 302 318 312 319 315 315 312 310 312 313 313 313
357 355 354 355 352 350 349 347 342 338 337 334 335 335 330 325 324 325 325 324 324 325 325 326 326 323 322 325 325 315 292 298 306 302 314 312 311 312 311 312 314 312 313
Wind_Speed
10 6 11 10 8 5 6 4 6 3 4 6 6 6 4 5 4 5 6 6 6 8 6 6 5 8 7 6 5 5 5 4 7 5 3 3 4 3 3 7 8 6 4
11 8 6 4 5 7 6 4 5 4 6 7 7 5 5 6 6 7 8 5 7 7 6 6 7 6 7 7 4 5 5 5 5 6 4 2 4 1 1 3 5 8 6
12 11 7 6 7 6 3 6 5 6 6 7 5 6 6 5 6 6 6 6 6 7 7 6 7 7 7 4 5 6 5 4 3 5 3 3 2 4 5 4 3 4 5
14 12 11 10 11 6 8 5 5 5 7 7 6 5 5 7 6 6 5 5 8 10 10 9 9 8 7 5 8 8 6 2 2 4 4 4 5 5 5 5 5 5 4
13 11 11 10 6 8 8 6 5 7 7 7 5 5 6 6 6 5 5 6 9 10 7 7 7 9 16 13 6 6 9 8 7 5 5 7 6 5 5 4 4 4 1
13 14 13 9 8 9 9 7 7 7 7 6 5 5 3 7 10 10 7 7 9 8 6 6 6 9 9 10 12 14 11 6 7 7 7 6 6 4 5 5 3 5 4
11 9 8 11 10 10 9 8 8 7 6 6 6 5 8 6 9 8 6 6 5 6 5 6 5 7 4 5 8 11 11 12 9 6 6 5 3 4 4 5 5 3 2
11 10 10 11 12 11 10 9 8 8 7 6 6 9 7 5 6 6 9 5 4 6 6 6 9 7 6 6 4 7 7 6 6 5 4 3 2 4 4 4 4 6 5
10 11 12 12 12 11 10 8 7 9 8 7 7 7 8 5 4 2 4 6 5 6 7 5 7 5 7 9 3 4 6 4 1 1 3 3 1 5 7 5 7 5 4
11 12 14 13 12 12 11 10 8 8 8 7 8 7 9 6 5 7 5 1 5 4 6 6 9 5 5 7 4 1 5 3 6 6 4 5 6 5 9 5 4 5 4
13 13 13 12 13 11 11 9 9 8 8 8 8 7 7 7 5 6 2 3 6 7 6 5 4 5 4 4 5 3 2 5 7 5 4 3 4 5 3 4 1 2 2
14 14 14 13 10 10 12 10 9 8 9 8 8 6 5 6 6 7 4 4 6 3 7 7 6 6 2 2 5 3 4 5 4 4 4 3 2 3 1 2 5 5 5
16 15 14 13 11 11 12 12 10 9 9 8 8 7 7 6 5 8 8 3 5 3 7 11 13 9 5 4 7 8 6 5 3 4 4 2 1 3 3 1 5 4 6
17 16 14 14 12 12 10 10 10 10 10 9 9 9 8 8 8 7 5 4 3 6 9 8 9 8 8 6 6 5 3 0 2 3 2 1 2 2 2 1 2 3 4
15 15 15 12 12 13 11 11 11 12 11 11 11 10 10 11 10 11 10 7 6 7 7 5 4 5 6 6 6 6 4 3 3 2 2 1 1 1 2 2 2 3 2
16 13 13 13 12 11 11 7 8 2 12 12 13 11 9 13 18 18 16 12 12 11 6 6 7 8 9 8 5 5 4 5 3 2 3 1 2 2 1 4 2 2 2
16 16 13 13 14 13 13 12 12 2 5 8 10 8 4 13 21 21 17 12 12 10 10 7 8 7 5 4 4 5 4 6 5 3 4 3 2 2 2 3 3 1 2
16 19 15 15 14 13 13 12 12 11 11 8 3 4 10 16 20 21 18 13 4 4 9 8 8 6 5 6 5 4 5 5 4 5 4 4 3 3 2 2 4 2 1
15 14 14 14 13 13 13 12 12 12 11 11 8 3 6 9 16 19 21 12 11 9 8 8 8 7 6 5 5 5 6 5 3 2 3 2 2 2 2 3 2 2 2
16 16 16 14 12 13 12 12 12 12 12 12 12 11 9 9 10 10 11 11 10 10 11 11 10 8 6 7 6 7 6 5 5 4 4 4 3 3 3 2 3 1 3
12 12 19 13 12 13 13 13 13 13 12 12 12 12 15 12 12 13 13 12 12 11 10 11 12 12 7 7 8 8 9 9 9 10 6 5 5 4 5 5 3 4 4
12 13 15 15 13 14 14 13 13 13 13 13 12 12 23 13 12 13 13 13 14 13 11 10 11 11 11 10 11 11 11 9 8 8 7 6 5 5 4 4 4 2 4
14 14 14 15 13 14 13 13 13 13 14 14 14 12 15 15 14 14 14 13 14 15 15 12 10 12 10 10 9 10 11 10 9 10 9 7 5 5 3 3 3 3 0
14 16 14 15 14 13 14 15 14 15 15 14 14 14 15 16 16 17 15 14 13 13 14 15 16 14 11 10 10 9 9 8 8 10 11 6 5 5 2 2 4 3 2
15 16 15 16 15 14 12 14 14 14 15 14 13 14 13 15 16 16 15 14 14 15 18 14 11 14 12 14 13 12 12 15 12 9 5 7 7 9 6 5 5 2 2
16 15 15 11 13 14 14 12 14 14 14 14 13 13 13 15 15 15 15 16 15 15 15 11 15 19 19 15 18 17 16 19 14 14 9 7 6 4 5 5 7 4 4
Wind_Direction
163 214 172 195 147 165 161 198 235 180 134 103 108 109 114 104 99 90 84 77 68 56 55 28 33 22 32 9 22 24 33 8 93 87 79 71 80 25 103 143 158 127 144
161 187 206 122 142 188 183 193 216 109 93 118 119 126 95 71 61 60 70 76 76 73 65 58 45 28 38 15 40 47 17 9 91 93 111 76 34 288 282 133 167 142 134
159 168 171 184 193 213 194 213 130 135 126 111 107 99 101 103 92 89 94 91 85 75 63 53 48 38 19 35 20 30 8 11 50 108 92 94 65 19 351 1 109 96 138
161 170 173 187 209 179 151 140 139 124 106 113 118 112 132 120 124 109 104 106 89 72 61 57 51 38 22 40 37 19 1 321 37 99 87 63 33 26 8 13 14 21 35
164 166 184 199 207 126 120 144 120 122 126 124 141 138 118 125 124 130 107 100 96 97 102 95 81 76 64 55 52 25 15 26 19 23 56 62 24 16 10 341 13 334 80
177 183 188 182 135 137 127 153 144 136 124 140 144 116 174 94 75 52 111 100 107 119 127 128 132 100 91 89 76 64 50 28 26 28 44 67 27 16 353 345 346 351 340
150 152 141 134 144 143 151 159 138 136 141 160 130 122 94 93 67 54 43 123 114 132 169 172 165 88 77 118 109 96 58 35 58 65 69 47 41 346 335 324 318 295 293
160 164 149 150 149 149 149 151 146 148 179 159 131 106 111 96 83 71 97 105 107 77 75 65 76 65 27 23 169 100 104 63 37 77 95 121 101 342 346 290 316 295 93
164 155 157 153 151 151 154 160 173 160 164 137 127 130 122 140 169 111 16 114 104 94 63 40 92 76 25 11 53 88 103 139 150 71 124 143 156 313 316 7 354 351 359
171 161 159 158 156 160 167 170 162 155 150 154 137 136 143 162 202 61 50 159 148 126 121 88 84 100 53 26 8 94 147 194 186 193 216 234 224 254 278 84 355 349 353
167 152 153 157 157 167 170 166 161 161 153 134 135 137 155 169 178 120 57 302 173 168 159 157 124 117 79 49 25 25 22 331 319 296 212 168 159 201 187 92 121 334 356
154 156 155 160 164 172 168 163 161 159 137 140 140 154 169 170 195 165 201 265 326 243 177 139 126 149 160 319 314 270 300 310 278 258 84 77 55 67 3 188 210 229 217
151 160 159 161 173 169 167 163 164 159 152 163 170 185 173 179 198 170 195 260 27 48 130 133 144 159 185 259 266 273 299 277 299 46 68 55 357 194 237 288 320 252 268
161 159 160 165 171 171 171 171 175 173 173 183 185 193 172 177 192 179 192 195 139 92 98 127 160 176 193 221 209 238 237 307 334 61 30 307 308 353 91 56 306 310 308
169 161 162 173 173 173 183 183 189 185 188 187 190 196 177 184 190 181 181 191 183 175 159 150 173 200 219 213 218 207 185 176 226 142 268 263 282 331 66 347 292 303 312
169 169 171 173 175 178 187 174 34 248 193 198 198 198 184 177 166 174 185 194 197 182 185 178 201 217 224 208 183 177 181 171 154 148 261 235 274 118 64 292 264 284 344
173 172 174 182 180 181 192 184 191 85 59 154 146 148 173 174 170 172 177 178 189 165 202 216 210 217 204 199 178 174 192 143 141 228 263 225 163 309 194 284 286 323 18
181 172 178 192 184 185 190 188 191 187 186 181 173 181 160 165 168 166 162 143 171 214 207 222 230 218 195 182 176 189 146 155 165 208 221 230 168 219 256 266 277 106 24
193 180 185 195 181 188 188 187 194 191 193 196 172 171 153 150 168 166 163 188 193 199 212 229 241 230 206 194 170 180 143 157 183 198 222 185 237 239 250 257 312 207 221
198 193 190 187 182 191 190 196 191 196 191 197 199 192 164 149 176 184 196 199 200 207 207 210 235 247 213 189 175 149 153 155 160 182 236 201 205 216 268 301 293 320 285
202 203 184 186 193 192 191 200 200 199 193 197 201 192 174 184 185 192 194 203 208 207 209 214 212 219 221 179 174 178 175 179 185 194 186 184 206 189 189 219 236 264 279
212 204 189 198 196 191 197 197 201 201 203 196 198 185 159 192 202 200 203 204 206 210 217 219 217 226 222 197 176 178 179 188 211 178 164 196 190 184 198 212 230 206 276
205 215 189 198 204 193 191 199 202 206 207 201 196 184 183 189 201 209 210 209 206 210 212 217 221 217 208 202 203 187 190 188 199 171 177 191 170 165 199 198 217 236 249
201 222 207 194 205 207 195 201 207 204 208 209 199 203 183 192 200 207 209 207 210 213 217 225 224 217 196 188 199 195 189 189 187 169 170 163 146 148 161 193 242 233 233
226 213 230 185 198 211 205 199 206 215 210 213 208 204 178 191 198 206 210 212 211 210 218 217 222 224 210 188 192 197 191 164 162 159 152 139 145 151 182 204 231 216 260
213 229 222 208 187 200 217 208 209 210 222 210 217 206 188 193 197 203 211 213 217 216 215 214 210 207 207 200 195 184 169 166 155 154 150 134 127 163 194 202 231 184 221